User: anonymous   Login
Location: Newark
(47.4417°N, 1.1394°W)
Time: 20:44:12
(UTC+00:00)
Language:

Hubble Space Telescope - Orbit

View from above orbital plane
View from above orbital plane
View from above satellite
View from above satellite

Ground track
Ground track

The orbit data is extracted from the following two-line orbital elements,

1 20580U 90037B   19341.88464494 +.00000350 +00000-0 +10330-4 0  9998
2 20580 028.4681 153.2532 0002670 175.1254 312.2337 15.09309038426840
Epoch (UTC): 07 December 2019 21:13:53
Eccentricity: 0.0002670
inclination: 28.4681°
perigee height: 536 km
apogee height: 540 km
right ascension of ascending node: 153.2532°
argument of perigee: 175.1254°
revolutions per day: 15.09309038
mean anomaly at epoch: 312.2337°
orbit number at epoch: 42684

The dashed part of the orbit path shows where the satellite is in the earth's shadow,  

DLR